TimeCET,TemperatureF,Dew PointF,Humidity,Sea Level PressureIn,VisibilityMPH,Wind Direction,Wind SpeedMPH,Gust SpeedMPH,PrecipitationIn,Events,Conditions,WindDirDegrees,DateUTC
12:00 AM,30.2,28.4,93,30.24,1.9,East,3.5,-,N/A,,Overcast,90,2011-11-16 23:00:00
12:03 AM,30.2,28.4,93,30.24,-9999.0,East,4.6,-,N/A,,Overcast,90,2011-11-16 23:03:00
12:17 AM,30.2,28.4,93,30.24,1.8,ENE,4.6,-,N/A,,Overcast,70,2011-11-16 23:17:00
12:30 AM,30.2,28.4,93,30.24,1.6,East,3.5,-,N/A,,Overcast,80,2011-11-16 23:30:00
1:00 AM,30,29,94,30.33,1,East,4.5,,,,Mist,80,2011-11-17 00:00:00
1:00 AM,30.2,28.4,93,30.24,1.2,East,4.6,-,N/A,,Overcast,80,2011-11-17 00:00:00
1:30 AM,30.2,28.4,93,30.24,1.2,East,5.8,-,N/A,,Overcast,90,2011-11-17 00:30:00
2:00 AM,30.2,28.4,93,30.24,1.2,East,5.8,-,N/A,,Overcast,90,2011-11-17 01:00:00
2:19 AM,30.2,28.4,93,30.24,1.2,East,5.8,-,N/A,,Overcast,80,2011-11-17 01:19:00
2:30 AM,30.2,28.4,93,30.24,1.2,East,5.8,-,N/A,,Overcast,80,2011-11-17 01:30:00
3:00 AM,30.2,28.4,93,30.24,1.4,East,6.9,-,N/A,,Overcast,80,2011-11-17 02:00:00
3:30 AM,30.2,28.4,93,30.21,1.1,East,5.8,-,N/A,,Overcast,90,2011-11-17 02:30:00
4:00 AM,30.2,28.4,93,30.21,1.2,East,4.6,-,N/A,,Overcast,90,2011-11-17 03:00:00
4:30 AM,30.2,28.4,93,30.21,1.4,East,5.8,-,N/A,,Overcast,90,2011-11-17 03:30:00
5:00 AM,30.2,28.4,93,30.21,1.1,East,4.6,-,N/A,,Overcast,90,2011-11-17 04:00:00
5:30 AM,30.2,28.4,93,30.21,1.5,ESE,4.6,-,N/A,,Overcast,110,2011-11-17 04:30:00
6:00 AM,30.2,28.4,93,30.21,1.7,East,4.6,-,N/A,,Overcast,100,2011-11-17 05:00:00
6:30 AM,30.2,28.4,93,30.21,1.9,ESE,3.5,-,N/A,,Overcast,120,2011-11-17 05:30:00
7:00 AM,30,29,97,30.31,2,SSW,4.5,,,,Mist,200,2011-11-17 06:00:00
7:00 AM,30.2,30.2,100,30.24,2.2,ENE,2.3,-,N/A,,Overcast,60,2011-11-17 06:00:00
7:30 AM,30.2,30.2,100,30.24,1.9,SW,5.8,-,N/A,,Overcast,230,2011-11-17 06:30:00
8:00 AM,30.2,30.2,100,30.24,1.6,South,5.8,-,N/A,,Overcast,190,2011-11-17 07:00:00
8:30 AM,30.2,30.2,100,30.24,1.6,WSW,8.1,-,N/A,,Overcast,240,2011-11-17 07:30:00
9:00 AM,30.2,30.2,100,30.24,1.8,WSW,6.9,-,N/A,,Overcast,250,2011-11-17 08:00:00
9:30 AM,30.2,30.2,100,30.24,1.9,SW,6.9,-,N/A,,Overcast,220,2011-11-17 08:30:00
10:00 AM,30.2,30.2,100,30.24,1.7,SSW,8.1,-,N/A,,Overcast,210,2011-11-17 09:00:00
10:30 AM,30.2,28.4,93,30.24,1.7,Variable,8.1,-,N/A,,Overcast,0,2011-11-17 09:30:00
11:00 AM,28.4,28.4,100,30.24,2.2,SSW,8.1,-,N/A,,Overcast,210,2011-11-17 10:00:00
11:30 AM,30.2,30.2,100,30.24,2.2,SW,8.1,-,N/A,,Overcast,220,2011-11-17 10:30:00
12:00 PM,30.2,30.2,100,30.24,2.2,SSW,5.8,-,N/A,,Overcast,200,2011-11-17 11:00:00
12:30 PM,30.2,30.2,100,30.24,2.2,SW,6.9,-,N/A,,Overcast,220,2011-11-17 11:30:00
1:00 PM,31,30,96,30.31,2,SW,6.7,,,,Mist,220,2011-11-17 12:00:00
1:00 PM,30.2,30.2,100,30.24,-9999.0,SSW,8.1,-,N/A,,Overcast,210,2011-11-17 12:00:00
1:30 PM,30.2,30.2,100,30.24,2.5,SSW,8.1,-,N/A,,Overcast,210,2011-11-17 12:30:00
2:00 PM,32.0,32.0,100,30.21,2.5,SW,9.2,-,N/A,,Overcast,220,2011-11-17 13:00:00
2:30 PM,32.0,32.0,100,30.21,-9999.0,SSW,5.8,-,N/A,,Overcast,200,2011-11-17 13:30:00
3:00 PM,32.0,32.0,100,30.21,2.5,SSE,4.6,-,N/A,,Overcast,160,2011-11-17 14:00:00
3:30 PM,32.0,32.0,100,30.21,-9999.0,SE,4.6,-,N/A,,Overcast,140,2011-11-17 14:30:00
4:00 PM,32.0,32.0,100,30.21,-9999.0,SE,4.6,-,N/A,,Overcast,130,2011-11-17 15:00:00
4:30 PM,32.0,32.0,100,30.21,1.9,SE,4.6,-,N/A,,Overcast,130,2011-11-17 15:30:00
5:00 PM,32.0,32.0,100,30.21,1.7,SE,5.8,-,N/A,,Overcast,130,2011-11-17 16:00:00
5:03 PM,32.0,32.0,100,30.21,1.5,SE,4.6,-,N/A,,Light Drizzle,130,2011-11-17 16:03:00
5:30 PM,32.0,32.0,100,30.21,1.4,ESE,3.5,-,N/A,,Light Drizzle,110,2011-11-17 16:30:00
6:00 PM,32.0,32.0,100,30.21,1.2,SE,4.6,-,N/A,,Light Drizzle,130,2011-11-17 17:00:00
6:30 PM,32.0,32.0,100,30.21,1.2,SE,5.8,-,N/A,,Overcast,140,2011-11-17 17:30:00
7:00 PM,33,32,96,30.29,1,South,4.5,,,Rain,Light Drizzle,180,2011-11-17 18:00:00
7:00 PM,33.8,32.0,93,30.21,1.5,SSE,4.6,-,N/A,,Overcast,150,2011-11-17 18:00:00
7:30 PM,33.8,32.0,93,30.21,1.6,South,5.8,-,N/A,,Overcast,170,2011-11-17 18:30:00
8:00 PM,33.8,32.0,93,30.21,1.6,South,4.6,-,N/A,,Overcast,180,2011-11-17 19:00:00
8:30 PM,33.8,33.8,100,30.21,2.2,SSW,4.6,-,N/A,,Overcast,200,2011-11-17 19:30:00
9:00 PM,33.8,33.8,100,30.21,2.5,SSW,5.8,-,N/A,,Overcast,210,2011-11-17 20:00:00
9:30 PM,33.8,33.8,100,30.21,2.5,SW,5.8,-,N/A,,Overcast,220,2011-11-17 20:30:00
10:00 PM,35.6,33.8,93,30.21,3.1,SW,6.9,-,N/A,,Overcast,230,2011-11-17 21:00:00
10:30 PM,35.6,33.8,93,30.24,3.1,SW,5.8,-,N/A,,Overcast,230,2011-11-17 21:30:00
11:00 PM,35.6,33.8,93,30.24,3.1,SW,8.1,-,N/A,,Overcast,230,2011-11-17 22:00:00
11:30 PM,35.6,33.8,93,30.24,3.1,SW,6.9,-,N/A,,Overcast,230,2011-11-17 22:30:00